Location: French Creek State Gamelands
(40.1750°N, 75.7969°W)
Time: 11:41:36
(UTC-04:00)

ISS - All Passes

Search period start: 24 May 2016 00:00
Search period end: 03 June 2016 00:00
Orbit: 402 x 404 km, 51.6° (Epoch: 24 May)

Date Brightness Start Highest point End Pass type
(mag) Time Alt. Az. Time Alt. Az. Time Alt. Az.
24 May - 00:08:09 10° WSW 00:11:14 39° NNW 00:14:21 10° NE visible
24 May - 01:46:42 10° NW 01:48:23 13° NNW 01:50:03 10° NNE visible
24 May - 03:24:28 10° NNW 03:25:56 12° N 03:27:24 10° NE visible
24 May - 05:00:10 10° NW 05:03:09 32° NNE 05:06:08 10° E visible
24 May - 06:36:41 10° WNW 06:39:33 29° SW 06:42:25 10° SSE daylight
24 May - 21:41:18 10° SSE 21:42:26 11° SE 21:43:33 10° ESE night (unlit)
24 May - 23:15:12 10° WSW 23:18:26 73° NW 23:21:43 10° NE visible
25 May - 00:53:10 10° WNW 00:55:21 16° NNW 00:57:32 10° NNE visible
25 May - 02:31:45 10° NNW 02:32:51 11° N 02:33:57 10° NNE visible
25 May - 04:07:38 10° NNW 04:10:14 21° NNE 04:12:51 10° ENE visible
25 May - 05:43:41 10° WNW 05:46:55 59° SW 05:50:07 10° SE daylight
25 May - 22:22:32 10° SW 22:25:43 55° SE 22:28:55 10° ENE visible
25 May - 23:59:43 10° WNW 00:02:22 22° NNW 00:05:01 10° NNE visible
26 May - 01:38:37 10° NNW 01:39:44 11° N 01:40:52 10° NNE visible
26 May - 03:15:07 10° NNW 03:17:15 16° NNE 03:19:23 10° ENE visible
26 May - 04:50:56 10° NW 04:54:11 68° NE 04:57:26 10° ESE visible
26 May - 06:28:49 10° WSW 06:30:14 12° SW 06:31:37 10° SSW daylight
26 May - 21:30:16 10° SSW 21:33:05 27° SE 21:35:54 10° ENE visible
26 May - 23:06:26 10° W 23:09:27 34° NNW 23:12:28 10° NE visible
27 May - 00:45:08 10° NW 00:46:39 13° N 00:48:10 10° NNE visible
27 May - 02:22:35 10° NNW 02:24:12 13° N 02:25:49 10° NE visible
27 May - 03:58:17 10° NW 04:01:21 37° NNE 04:04:25 10° E visible
27 May - 05:34:59 10° WNW 05:37:40 24° SW 05:40:21 10° S daylight
27 May - 20:38:44 10° SSE 20:40:31 14° SE 20:42:18 10° E daylight
27 May - 22:13:23 10° WSW 22:16:37 60° NNW 22:19:50 10° NE visible
27 May - 23:51:33 10° NW 23:53:34 15° NNW 23:55:37 10° NNE visible
28 May - 01:29:55 10° NNW 01:31:06 11° N 01:32:17 10° NNE visible
28 May - 03:05:43 10° NNW 03:08:27 24° NNE 03:11:11 10° E visible
28 May - 04:41:53 10° WNW 04:45:02 47° SW 04:48:11 10° SSE visible
28 May - 21:20:36 10° SW 21:23:50 69° SE 21:27:05 10° ENE visible
28 May - 22:58:02 10° WNW 23:00:33 20° NNW 23:03:05 10° NNE visible
29 May - 00:36:54 10° NNW 00:37:59 11° N 00:39:03 10° NNE visible
29 May - 02:13:11 10° NNW 02:15:28 17° NNE 02:17:44 10° ENE visible
29 May - 03:49:03 10° NW 03:52:19 83° NE 03:55:34 10° SE visible
29 May - 20:28:11 10° SSW 20:31:09 33° SE 20:34:08 10° ENE daylight
29 May - 22:04:40 10° W 22:07:36 29° NNW 22:10:32 10° NE visible
29 May - 23:43:28 10° NNW 23:44:51 12° N 23:46:14 10° NNE visible
30 May - 01:20:38 10° NNW 01:22:24 14° NNE 01:24:10 10° NE visible
30 May - 02:56:21 10° NW 02:59:30 44° NNE 03:02:38 10° ESE visible
30 May - 04:33:18 10° W 04:35:44 20° SW 04:38:10 10° S visible
30 May - 19:36:21 10° S 19:38:33 17° SE 19:40:45 10° E daylight
30 May - 21:11:32 10° WSW 21:14:42 50° NNW 21:17:54 10° NE visible
30 May - 22:49:52 10° NW 22:51:45 14° NNW 22:53:38 10° NNE visible
31 May - 00:28:00 10° NNW 00:29:18 12° N 00:30:35 10° NNE visible
31 May - 02:03:44 10° NW 02:06:35 27° NNE 02:09:26 10° E visible
31 May - 03:40:02 10° WNW 03:43:06 38° SW 03:46:09 10° SSE visible
31 May - 20:18:38 10° SW 20:21:54 85° SE 20:25:10 10° NE daylight
31 May - 21:56:18 10° WNW 21:58:41 18° NNW 22:01:05 10° NNE visible
31 May - 23:35:05 10° NNW 23:36:09 11° N 23:37:13 10° NNE visible
01 Jun - 01:11:10 10° NNW 01:13:36 19° NNE 01:16:01 10° ENE visible
01 Jun - 02:47:06 10° NW 02:50:23 80° SW 02:53:38 10° SE visible
01 Jun - 19:26:05 10° SSW 19:29:10 40° SE 19:32:16 10° ENE daylight
01 Jun - 21:02:52 10° W 21:05:42 26° NNW 21:08:31 10° NE visible
01 Jun - 22:41:44 10° NNW 22:43:00 12° N 22:44:16 10° NNE visible
02 Jun - 00:18:37 10° NNW 00:20:33 15° NNE 00:22:27 10° NE visible
02 Jun - 01:54:21 10° NW 01:57:34 52° NNE 02:00:45 10° ESE visible
02 Jun - 03:31:36 10° W 03:33:42 16° SW 03:35:49 10° S night (unlit)
02 Jun - 18:34:00 10° S 18:36:30 21° SE 18:39:02 10° E daylight
02 Jun - 20:09:38 10° WSW 20:12:46 42° NNW 20:15:54 10° NE daylight
02 Jun - 21:48:09 10° NW 21:49:52 13° NNW 21:51:36 10° NNE visible
02 Jun - 23:26:00 10° NNW 23:27:25 12° N 23:28:50 10° NE visible
